Regional Weather Roundup
Issued by NWS Memphis, TN

Home | Current Version | Previous Version | Text Only | Print | Product List | Glossary On
Versions: 1 2 3 4 5 6 7 8 9 10 11 12 13 14 15 16 17 18 19 20 21 22 23 24 25 26 27 28 29 30 31 32 33 34 35 36 37 38 39 40 41 42 43 44 45 46 47 48 49 50
000
ASUS44 KMEG 041310
RWRMEG
MEMPHIS CWA HOURLY WEATHER ROUNDUP
NATIONAL WEATHER SERVICE MEMPHIS TN
800 AM CDT MON MAY 04 2015

...WEST TENNESSEE...

CITY           SKY/WX    TMP DP  RH WIND       PRES   REMARKS
MEMPHIS INTL   MOSUNNY   68  57  68 S10       30.20R
NWS MEMPHIS      N/A     68 N/A N/A MISG        N/A
JACKSON        SUNNY     68  54  60 SW10      30.20R
LEXINGTON      SUNNY     63  55  77 CALM      30.21R
DYERSBURG      SUNNY     66  46  48 S3        30.20R
PARIS          PTSUNNY   63  52  67 S7        30.20R


...EASTERN ARKANSAS...

CITY           SKY/WX    TMP DP  RH WIND       PRES   REMARKS
JONESBORO      SUNNY     65  58  78 CALM      30.17R
WEST MEMPHIS   SUNNY     67  60  78 S9        30.18R
BATESVILLE     SUNNY     64  57  77 S3        30.16R
NEWPORT        SUNNY     66  59  78 S7        30.18R
WALNUT RIDGE   MOSUNNY   64  55  72 S8        30.16R
BLYTHEVILLE    SUNNY     67  57  70 S9        30.19R
NW BLYTHEVILLE SUNNY     70  57  64 W10       30.18
SEARCY         SUNNY     64  60  87 CALM      30.18R
STUTTGART      SUNNY     66  57  72 S9        30.18R
PINE BLUFF     SUNNY     65  58  78 S6        30.18R
MONTICELLO     SUNNY     62  58  86 S5        30.18R


...NORTH MISSISSIPPI...

CITY           SKY/WX    TMP DP  RH WIND       PRES   REMARKS
TUPELO         SUNNY     64  55  72 S7        30.24R
OXFORD         LGT RAIN  64  54  68 S5        30.24R
OLIVE BRANCH   MOSUNNY   64  61  88 S8        30.21R
TUNICA         SUNNY     64  59  82 S6        30.20R
CLARKSDALE     MOSUNNY   66  59  77 CALM      30.21R
CORINTH        MOSUNNY   64  55  72 CALM      30.22R
GREENWOOD      SUNNY     65  55  70 S8        30.22R
COLUMBUS       SUNNY     65  57  76 SE5       30.24R
STARKVILLE     FAIR      63  55  77 CALM      30.24R
GOLDEN TRIANGL SUNNY     64  54  68 CALM      30.24R


...SOUTHEAST MISSOURI...

CITY           SKY/WX    TMP DP  RH WIND       PRES   REMARKS
WEST PLAINS    PTSUNNY   65  55  70 S5        30.14R
POPLAR BLUFF   MOSUNNY   65  56  72 S6        30.15R
CAPE GIRARDEAU PTSUNNY   65  54  67 S6        30.16R


...NORTHWEST ALABAMA...

CITY           SKY/WX    TMP DP  RH WIND       PRES   REMARKS
MUSCLE SHOALS  CLOUDY    63  55  75 CALM      30.26R


...MIDDLE TENNESSEE...

CITY           SKY/WX    TMP DP  RH WIND       PRES   REMARKS
NASHVILLE      MOSUNNY   64  54  69 S5        30.24R
CLARKSVILLE    MOSUNNY   66  52  60 SW9       30.20R
COLUMBIA       SUNNY     63  55  77 CALM      30.22R


...WESTERN KENTUCKY...

CITY           SKY/WX    TMP DP  RH WIND       PRES   REMARKS
PADUCAH        PTSUNNY   66  53  63 SW7       30.17R
FORT CAMPBELL  SUNNY     68  53  58 S8        30.20R


...CENTRAL ARKANSAS...

CITY           SKY/WX    TMP DP  RH WIND       PRES   REMARKS
LITTLE ROCK    MOSUNNY   65  57  75 CALM      30.17R


SKY/WX REPORTED AS FAIR MEANS FEW OR NO CLOUDS BELOW
12 THOUSAND FEET.




USA.gov is the U.S. government's official web portal to all federal, state and local government web resources and services.